This is the latest recevied weather packets stored in our database for station/object KF7ROW. If no packets are shown the sender has not sent any weather packets the latest 10 day(s).
| Time | Temp. | Humidity | Pressure | Rain* | Wind** | Luminosity | Snow |
|---|---|---|---|---|---|---|---|
| 1778097710 | 13.33° C | 84% | 1026.8 hPa | 0 mm | - | 198 W/m² | - |
| 1778097407 | 13.33° C | 84% | 1026.8 hPa | 0 mm | - | 192 W/m² | - |
| 1778097103 | 13.33° C | 84% | 1026.9 hPa | 0 mm | - | 193 W/m² | - |
| 1778096801 | 13.33° C | 84% | 1026.8 hPa | 0 mm | - | 194 W/m² | - |
| 1778096497 | 13.33° C | 84% | 1026.9 hPa | 0 mm | - | 197 W/m² | - |
| 1778096195 | 13.33° C | 85% | 1026.7 hPa | 0 mm | - | 202 W/m² | - |
| 1778095892 | 13.33° C | 84% | 1026.7 hPa | 0 mm | - | 197 W/m² | - |
| 1778095589 | 13.33° C | 86% | 1026.6 hPa | 0 mm | - | 205 W/m² | - |
| 1778095285 | 13.33° C | 85% | 1026.7 hPa | 0 mm | - | 209 W/m² | - |
| 1778094982 | 13.33° C | 85% | 1026.8 hPa | 0 mm | - | 206 W/m² | - |
| 1778094677 | 13.33° C | 84% | 1026.8 hPa | 0 mm | - | 199 W/m² | - |
| 1778094375 | 13.33° C | 85% | 1026.7 hPa | 0 mm | - | 187 W/m² | - |
| 1778094072 | 13.33° C | 86% | 1026.9 hPa | 0 mm | - | 176 W/m² | - |
| 1778093769 | 13.33° C | 86% | 1026.8 hPa | 0 mm | - | 186 W/m² | - |
| 1778093465 | 13.33° C | 86% | 1026.9 hPa | 0 mm | - | 222 W/m² | - |
| 1778093163 | 13.33° C | 85% | 1026.5 hPa | 0 mm | - | 257 W/m² | - |
| 1778092860 | 13.33° C | 87% | 1026.5 hPa | 0 mm | - | 233 W/m² | - |
| 1778092556 | 12.78° C | 87% | 1026.6 hPa | 0 mm | - | 210 W/m² | - |
| 1778092252 | 12.78° C | 86% | 1026.5 hPa | 0 mm | - | 209 W/m² | - |
| 1778091950 | 12.78° C | 87% | 1026.5 hPa | 0 mm | - | 209 W/m² | - |
| 1778091647 | 12.78° C | 88% | 1026.6 hPa | 0 mm | - | 187 W/m² | - |
| 1778091345 | 12.78° C | 88% | 1026.5 hPa | 0 mm | - | 173 W/m² | - |
| 1778091041 | 12.78° C | 87% | 1026.6 hPa | 0 mm | - | 145 W/m² | - |
| 1778090738 | 12.78° C | 87% | 1026.7 hPa | 0 mm | - | 134 W/m² | - |
| 1778090435 | 13.33° C | 87% | 1026.4 hPa | 0 mm | - | 130 W/m² | - |
* Rain latest hour (hover to see other rain measurements)
** Current wind speed in m/s (hover to see current wind gust speed)